Regional Weather Roundup
Issued by NWS

Home | Current Version | Previous Version | Graphics & Text | Print | Product List | Glossary On
Versions: 1 2 3 4 5 6 7 8 9 10 11 12 13 14 15 16 17 18 19 20 21 22 23 24 25 26 27 28 29 30 31 32 33 34 35 36 37 38 39 40 41 42 43 44 45 46 47 48 49 50
544
ASUS43 KFSD 221310
RWRSD

WEATHER ROUNDUP FOR SOUTH DAKOTA
NATIONAL WEATHER SERVICE SIOUX FALLS SD
700 AM CST SUN JAN 22 2017

NOTE: "FAIR" INDICATES FEW OR NO CLOUDS BELOW 12,000 FEET WITH NO
SIGNIFICANT WEATHER AND/OR OBSTRUCTIONS TO VISIBILITY.


SDZ001>005-009-010-012>017-221400-
NORTHWEST AND NORTH CENTRAL SOUTH DAKOTA

CITY           SKY/WX    TMP DP  RH WIND       PRES   REMARKS
BUFFALO          N/A     17  14  88 NW13      29.69R WCI   4
FAITH            N/A     19  17  92 W10       29.75R WCI   7
MOBRIDGE       HAZE      12   7  80 N6        29.74R VSB 1   WCI   3
$$

SDZ012>016-024>037-041>051-057-063-072>074-221400-
SOUTHWEST AND SOUTH CENTRAL SOUTH DAKOTA

CITY           SKY/WX    TMP DP  RH WIND       PRES   REMARKS
RAPID CTY ARPT CLEAR     27  18  69 NW9       29.76R WCI  18
PIERRE         CLOUDY    19  15  84 SW8       29.76R WCI   9
CUSTER         CLEAR     25  16  68 NW3       29.75R
PHILIP         CLOUDY    23  21  92 W12       29.78R WCI  12
PINE RIDGE     CLEAR     15  13  91 W5        29.80R FOG     WCI   8
SPEARFISH      FAIR      28  19  69 CALM      29.78R
WINNER         FAIR      25  22  88 NW7       29.76R WCI  17
$$

SDZ004>011-016>023-039-040-221400-
NORTHEAST SOUTH DAKOTA

CITY           SKY/WX    TMP DP  RH WIND       PRES   REMARKS
ABERDEEN       CLOUDY    28  24  85 NW12      29.74R WCI  18
WATERTOWN      FOG       31  31 100 NW8       29.69R VSB 3/4 WCI  23
BROOKINGS      CLOUDY    32  31  96 NW12      29.69R WCI  23
SISSETON         N/A     34  33  96 NW9       29.69R WCI  27
$$

SDZ017-020-022-023-036>040-048>070-221400-
SOUTHEAST SOUTH DAKOTA

CITY           SKY/WX    TMP DP  RH WIND       PRES   REMARKS
SIOUX FALLS    CLOUDY    33  32  96 NW9       29.71R WCI  25
HURON          CLOUDY    23  23 100 NW9       29.75R WCI  13
CHAMBERLAIN    CLEAR     23  22  97 W8        29.75R WCI  13
MITCHELL       FOG       28  28 100 NW8       29.76R VSB 3/4 WCI  20
YANKTON        CLEAR     28  25  86 W12       29.73R WCI  18
$$

ABBREVIATIONS USED IN REMARKS
   TC - TEMPERATURE IN CELSIUS
  WCI - WIND CHILL INDEX
   HX - HEAT INDEX
  VSB - VISIBILITY





USA.gov is the U.S. government's official web portal to all federal, state and local government web resources and services.